Weather History for Hurlburt Field, FL

Change the Weather History Date:

Wednesday, November 7, 2012

  Actual Average Record
Temperature  
Mean Temperature 55 °F -  
Max Temperature 64 °F 71 °F 80 °F (1999)
Min Temperature 46 °F 52 °F 32 °F (2010)
Degree Days  
Heating Degree Days 10    
Growing Degree Days 5 (Base 50)    
Moisture  
Dew Point 44 °F    
Average Humidity 66    
Maximum Humidity 94    
Minimum Humidity 45    
Precipitation  
Precipitation 0.00 in - - ()
Sea Level Pressure  
Sea Level Pressure 30.02 in    
Wind  
Wind Speed 7 mph (NW)    
Max Wind Speed 17 mph    
Max Gust Speed 25 mph    
Visibility 10 miles    
Events      
Averages and records for this station are not official NWS values.
T = Trace of Precipitation, MM = Missing Value Source: NWS Daily Summary

Daily Weather History Graph

Daily Weather History Graph

Search for Another Location

Airport:

Trip Planner

Search our weather history database for the weather conditions in past years. The results will help you decide how hot, cold, wet, or windy it might be!

Date:

Astronomy

Nov. 07, 2012 Rise Set
Actual Time 6:06 AM CST 4:54 PM CST
Civil Twilight 5:41 AM CST 5:19 PM CST
Nautical Twilight 5:12 AM CST 5:47 PM CST
Astronomical Twilight 4:44 AM CST 6:16 PM CST
Moon No Moon Rise 12:37 PM CST (11/7)
Length of Visible Light 11h 38m
Length of Day
10h 47m
Last Quarter, 43% of the Moon is Illuminated
Nov 7
Last Quarter
Nov 13
New
Nov 20
First Quarter
Nov 28
Full
Dec 6
Last Quarter

Hourly Weather History & Observations

Time (CST) Temp. Windchill Dew Point Humidity Pressure Visibility Wind Dir Wind Speed Gust Speed Precip Events Conditions
12:55 AM 48.6 °F - 45.9 °F 90% 30.01 in 10.0 mi Calm Calm - N/A   Clear
1:55 AM 48.0 °F - 45.7 °F 92% 30.01 in 10.0 mi WNW 3.5 mph - N/A   Clear
2:38 AM 48.2 °F - 46.4 °F 93% 30.01 in 10.0 mi NW 3.5 mph - N/A   Mostly Cloudy
2:46 AM 48.2 °F - 46.4 °F 93% 30.01 in 10.0 mi NW 3.5 mph - N/A   Scattered Clouds
2:55 AM 48.0 °F - 45.9 °F 92% 30.01 in 10.0 mi NW 4.6 mph - N/A   Scattered Clouds
3:55 AM 47.3 °F - 45.5 °F 93% 30.01 in 10.0 mi NW 3.5 mph - N/A   Clear
4:55 AM 46.9 °F - 45.3 °F 94% 30.02 in 10.0 mi NW 3.5 mph - N/A   Clear
5:55 AM 46.6 °F - 45.0 °F 94% 30.02 in 10.0 mi WNW 3.5 mph - N/A   Clear
6:55 AM 47.3 °F - 45.7 °F 94% 30.03 in 10.0 mi WNW 3.5 mph - N/A   Clear
7:55 AM 52.2 °F - 46.8 °F 82% 30.04 in 10.0 mi Variable 6.9 mph - N/A   Clear
8:55 AM 57.0 °F - 45.9 °F 66% 30.06 in 10.0 mi NW 12.7 mph - N/A   Clear
9:20 AM 59.0 °F - 44.6 °F 59% 30.06 in 10.0 mi North 12.7 mph 19.6 mph N/A   Mostly Cloudy
9:52 AM 59.0 °F - 46.4 °F 63% 30.05 in 10.0 mi NNW 10.4 mph - N/A   Scattered Clouds
9:55 AM 59.7 °F - 45.7 °F 60% 30.05 in 10.0 mi NW 12.7 mph - N/A   Scattered Clouds
10:55 AM 61.5 °F - 46.8 °F 58% 30.02 in 10.0 mi NNW 11.5 mph - N/A   Scattered Clouds
11:02 AM 60.8 °F - 46.4 °F 59% 30.01 in 10.0 mi NW 12.7 mph 18.4 mph N/A   Mostly Cloudy
11:19 AM 62.6 °F - 46.4 °F 55% 30.00 in 10.0 mi NNW 10.4 mph - N/A   Scattered Clouds
11:33 AM 62.6 °F - 46.4 °F 55% 29.99 in 10.0 mi WNW 10.4 mph - N/A   Mostly Cloudy
11:55 AM 64.6 °F - 46.0 °F 51% 29.98 in 10.0 mi NNW 12.7 mph 19.6 mph N/A   Mostly Cloudy
12:02 PM 64.4 °F - 44.6 °F 49% 29.98 in 10.0 mi NNW 17.3 mph 25.3 mph N/A   Mostly Cloudy
12:09 PM 64.4 °F - 44.6 °F 49% 29.97 in 10.0 mi NW 13.8 mph 25.3 mph N/A   Mostly Cloudy
12:12 PM 64.4 °F - 44.6 °F 49% 29.97 in 10.0 mi NNW 11.5 mph 25.3 mph N/A   Mostly Cloudy
12:21 PM 64.4 °F - 44.6 °F 49% 29.97 in 10.0 mi NW 9.2 mph 18.4 mph N/A   Mostly Cloudy
12:25 PM 64.4 °F - 44.6 °F 49% 29.96 in 10.0 mi North 13.8 mph 20.7 mph N/A   Mostly Cloudy
12:55 PM 62.8 °F - 42.1 °F 47% 29.96 in 10.0 mi NW 13.8 mph 23.0 mph N/A   Scattered Clouds
1:55 PM 64.2 °F - 44.2 °F 48% 29.94 in 10.0 mi North 10.4 mph - N/A   Scattered Clouds
2:55 PM 64.4 °F - 42.4 °F 45% 29.94 in 10.0 mi NW 11.5 mph - N/A   Partly Cloudy
3:55 PM 63.1 °F - 41.2 °F 45% 29.96 in 10.0 mi NNW 15.0 mph - N/A   Clear
4:55 PM 60.1 °F - 42.4 °F 52% 29.98 in 10.0 mi NW 6.9 mph - N/A   Clear
5:55 PM 57.9 °F - 42.1 °F 56% 30.01 in 10.0 mi NW 5.8 mph - N/A   Mostly Cloudy
6:55 PM 57.0 °F - 42.6 °F 59% 30.03 in 10.0 mi NW 4.6 mph - N/A   Overcast
7:55 PM 56.7 °F - 43.0 °F 60% 30.06 in 10.0 mi North 6.9 mph - N/A   Overcast
8:55 PM 52.9 °F - 42.8 °F 69% 30.09 in 10.0 mi North 9.2 mph - N/A   Overcast
9:55 PM 51.1 °F - 40.1 °F 66% 30.10 in 10.0 mi North 10.4 mph - N/A   Clear
10:55 PM 49.1 °F - 39.4 °F 69% 30.11 in 10.0 mi North 9.2 mph - N/A   Clear
11:55 PM 46.4 °F 42.4 °F 38.7 °F 74% 30.12 in 10.0 mi North 8.1 mph - N/A   Clear